Location: Unspecified
(0.0000°N, 0.0000°E)
Time: 11:26:10
(UTC+00:00)

S-56A Canister/Altair - Pass Details

Date: 19 November 2019
Orbit: 633 x 2499 km, 38.9° (Epoch: 07 December)

Event Time Altitude Azimuth Distance (km) Brightness Sun altitude
Rises 12:56:43 0° 227° (SW) 6,124 12.5 63.8°
Reaches altitude 10° 13:00:41 10° 226° (SW) 5,159 12.3 63.2°
Maximum altitude 13:16:00 85° 138° (SE) 2,320 11.2 60.5°
Drops below altitude 10° 13:28:11 10° 50° (NE) 4,213 11.1 58.2°
Sets 13:31:05 0° 50° (NE) 4,989 11.4 57.6°
